This is the latest recevied weather packets stored in our database for station/object WD4DAN-13. If no packets are shown the sender has not sent any weather packets the latest 10 day(s).
| Time | Temp. | Humidity | Pressure | Rain* | Wind** | Luminosity | Snow |
|---|---|---|---|---|---|---|---|
| 1777930468 | 27.78° C | 36% | - | 0 mm | - | - | - |
| 1777930166 | 26.67° C | 38% | - | 0 mm | - | - | - |
| 1777929861 | 26.67° C | 36% | - | 0 mm | - | - | - |
| 1777929559 | 26.11° C | 35% | - | 0 mm | - | - | - |
| 1777929255 | 26.67° C | 36% | - | 0 mm | - | - | - |
| 1777928953 | 27.22° C | 35% | - | 0 mm | - | - | - |
| 1777928650 | 27.22° C | 36% | - | 0 mm | - | - | - |
| 1777928347 | 27.22° C | 38% | - | 0 mm | - | - | - |
| 1777928044 | 27.22° C | 39% | - | 0 mm | - | - | - |
| 1777927742 | 26.67° C | 37% | - | 0 mm | - | - | - |
| 1777927440 | 26.67° C | 35% | - | 0 mm | - | - | - |
| 1777927140 | 26.67° C | 35% | - | 0 mm | - | - | - |
| 1777926836 | 26.67° C | 37% | - | 0 mm | - | - | - |
| 1777926532 | 26.67° C | 39% | - | 0 mm | - | - | - |
| 1777926229 | 27.22° C | 39% | - | 0 mm | - | - | - |
| 1777925925 | 27.22° C | 40% | - | 0 mm | - | - | - |
| 1777925623 | 26.67° C | 38% | - | 0 mm | - | - | - |
| 1777925320 | 26.11° C | 38% | - | 0 mm | - | - | - |
| 1777925017 | 26.67° C | 38% | - | 0 mm | - | - | - |
| 1777924713 | 26.67° C | 36% | - | 0 mm | - | - | - |
| 1777924409 | 27.22° C | 40% | - | 0 mm | - | - | - |
| 1777924106 | 27.22° C | 39% | - | 0 mm | - | - | - |
| 1777923802 | 25.56° C | 38% | - | 0 mm | - | - | - |
| 1777923498 | 26.67° C | 41% | - | 0 mm | - | - | - |
| 1777923196 | 26.67° C | 37% | - | 0 mm | - | - | - |
* Rain latest hour (hover to see other rain measurements)
** Current wind speed in m/s (hover to see current wind gust speed)